QTR1178 OTHH-OEMA

Flight info

Callsign QTR1178
Flight time 1h 58m
Altitude 32000
Route TULUB2A/34L TULUB B457 NARMI N697 BPN G674 PMA
Aircraft A21N/M-SDE2E3FGHIRWXY/LB1

Departure

Time 2026-05-09 09:59
Airport Hamad International Airport (OTHH)

Arrival

Time 2026-05-09 11:58
Airport Prince Mohammad Bin Abdulaziz Airport (OEMA)
Time Latitude Longitude Altitude Speed Heading
2026-05-09 09:25 25.26596 51.61064 28 ft 0 kts 67°
2026-05-09 09:49 25.26592 51.61053 28 ft 3 kts 68°
2026-05-09 09:49 25.26584 51.61033 28 ft 3 kts 69°
2026-05-09 09:49 25.26577 51.61013 28 ft 1 kts 68°
2026-05-09 09:49 25.26569 51.60995 28 ft 3 kts 49°
2026-05-09 09:50 25.26554 51.60982 28 ft 3 kts 23°
2026-05-09 09:50 25.26536 51.60976 28 ft 3 kts
2026-05-09 09:50 25.26516 51.60977 28 ft 3 kts 347°
2026-05-09 09:50 25.26502 51.60982 28 ft 1 kts 338°
2026-05-09 09:53 25.26509 51.60979 28 ft 3 kts 338°
2026-05-09 09:53 25.26537 51.60966 28 ft 6 kts 338°
2026-05-09 09:54 25.26576 51.60933 28 ft 8 kts 301°
2026-05-09 09:54 25.26602 51.60866 27 ft 10 kts 291°
2026-05-09 09:54 25.26631 51.60788 27 ft 12 kts 294°
2026-05-09 09:54 25.26667 51.60700 27 ft 13 kts 294°
2026-05-09 09:55 25.26681 51.60598 27 ft 15 kts 253°
2026-05-09 09:55 25.26640 51.60488 27 ft 16 kts 247°
2026-05-09 09:55 25.26581 51.60408 27 ft 15 kts 184°
2026-05-09 09:55 25.26482 51.60447 27 ft 16 kts 158°
2026-05-09 09:56 25.26376 51.60495 27 ft 17 kts 158°
2026-05-09 09:56 25.26262 51.60544 27 ft 17 kts 159°
2026-05-09 09:56 25.26194 51.60574 27 ft 11 kts 158°
2026-05-09 09:56 25.26121 51.60608 27 ft 12 kts 157°
2026-05-09 09:57 25.26038 51.60644 27 ft 14 kts 159°
2026-05-09 09:57 25.25945 51.60683 27 ft 15 kts 159°
2026-05-09 09:57 25.25846 51.60728 27 ft 16 kts 158°
2026-05-09 09:57 25.25738 51.60776 27 ft 17 kts 158°
2026-05-09 09:58 25.25637 51.60787 27 ft 16 kts 228°
2026-05-09 09:58 25.25592 51.60672 24 ft 17 kts 248°
2026-05-09 09:58 25.25562 51.60566 21 ft 11 kts 286°
2026-05-09 09:58 25.25638 51.60508 21 ft 25 kts 339°
2026-05-09 09:59 25.26035 51.60332 24 ft 96 kts 337°
2026-05-09 09:59 25.26856 51.59970 21 ft 155 kts 338°
2026-05-09 09:59 25.27946 51.59464 319 ft 173 kts 341°
2026-05-09 09:59 25.29029 51.58942 1094 ft 167 kts 345°
2026-05-09 10:00 25.30155 51.58495 1787 ft 180 kts 339°
2026-05-09 10:00 25.31366 51.57963 2288 ft 195 kts 339°
2026-05-09 10:00 25.32691 51.57382 2670 ft 217 kts 338°
2026-05-09 10:00 25.34155 51.56731 3061 ft 236 kts 338°
2026-05-09 10:01 25.35720 51.56037 3591 ft 247 kts 338°
2026-05-09 10:01 25.37318 51.55328 4377 ft 251 kts 337°
2026-05-09 10:01 25.38962 51.54600 5129 ft 257 kts 337°
2026-05-09 10:01 25.40637 51.53860 5824 ft 262 kts 337°
2026-05-09 10:02 25.42338 51.53106 6525 ft 265 kts 336°
2026-05-09 10:02 25.44063 51.52340 7251 ft 270 kts 336°
2026-05-09 10:02 25.45817 51.51562 7955 ft 274 kts 335°
2026-05-09 10:02 25.47628 51.50834 8692 ft 279 kts 343°
2026-05-09 10:03 25.49582 51.50683 9370 ft 290 kts
2026-05-09 10:03 25.51573 51.51218 9807 ft 298 kts 13°
2026-05-09 10:03 25.53600 51.51919 9941 ft 323 kts 14°
2026-05-09 10:03 25.55838 51.52692 9962 ft 351 kts 14°
2026-05-09 10:04 25.58216 51.53499 9950 ft 361 kts 14°
2026-05-09 10:04 25.60621 51.54302 9927 ft 361 kts 13°
2026-05-09 10:04 25.63059 51.55106 9914 ft 361 kts 13°
2026-05-09 10:04 25.65506 51.55615 9896 ft 356 kts 358°
2026-05-09 10:05 25.67881 51.55218 10163 ft 351 kts 340°
2026-05-09 10:05 25.70218 51.54382 10787 ft 355 kts 338°
2026-05-09 10:05 25.72569 51.53509 11489 ft 358 kts 338°
2026-05-09 10:05 25.74941 51.52639 12177 ft 361 kts 339°
2026-05-09 10:06 25.77339 51.51771 12862 ft 364 kts 339°
2026-05-09 10:06 25.79758 51.50901 13513 ft 368 kts 339°
2026-05-09 10:06 25.82200 51.50008 14098 ft 371 kts 336°
2026-05-09 10:06 25.84484 51.48707 14620 ft 370 kts 321°
2026-05-09 10:07 25.86334 51.46744 15159 ft 369 kts 307°
2026-05-09 10:07 25.87915 51.44495 15708 ft 372 kts 304°
2026-05-09 10:07 25.89486 51.42191 16242 ft 376 kts 304°
2026-05-09 10:07 25.91085 51.39864 16737 ft 381 kts 304°
2026-05-09 10:08 25.92717 51.37514 17259 ft 386 kts 304°
2026-05-09 10:08 25.94368 51.35148 17744 ft 391 kts 304°
2026-05-09 10:08 25.96046 51.32749 17908 ft 394 kts 304°
2026-05-09 10:08 25.97615 51.30266 17938 ft 391 kts 297°
2026-05-09 10:09 25.98898 51.27595 18239 ft 393 kts 294°
2026-05-09 10:09 26.00154 51.24888 18678 ft 396 kts 294°
2026-05-09 10:09 26.01419 51.22157 19158 ft 398 kts 294°
2026-05-09 10:09 26.02691 51.19420 19628 ft 400 kts 294°
2026-05-09 10:10 26.03978 51.16660 20112 ft 403 kts 294°
2026-05-09 10:10 26.05274 51.13889 20589 ft 405 kts 293°
2026-05-09 10:10 26.06575 51.11100 21052 ft 408 kts 293°
2026-05-09 10:10 26.07886 51.08286 21511 ft 411 kts 293°
2026-05-09 10:11 26.09211 51.05451 21984 ft 414 kts 292°
2026-05-09 10:11 26.10517 51.02655 22437 ft 417 kts 292°
2026-05-09 10:11 26.11812 50.99718 22904 ft 418 kts 290°
2026-05-09 10:11 26.13030 50.96774 23341 ft 420 kts 289°
2026-05-09 10:12 26.14231 50.93845 23715 ft 423 kts 289°
2026-05-09 10:12 26.15471 50.90822 24074 ft 425 kts 289°
2026-05-09 10:12 26.16701 50.87830 24447 ft 426 kts 289°
2026-05-09 10:12 26.17931 50.84830 24827 ft 427 kts 289°
2026-05-09 10:13 26.19151 50.81855 25199 ft 428 kts 289°
2026-05-09 10:13 26.20390 50.78834 25554 ft 430 kts 289°
2026-05-09 10:13 26.21632 50.75804 25905 ft 431 kts 288°
2026-05-09 10:13 26.22880 50.72758 26261 ft 432 kts 288°
2026-05-09 10:14 26.24127 50.69708 26607 ft 434 kts 288°
2026-05-09 10:14 26.25330 50.66633 26934 ft 432 kts 284°
2026-05-09 10:14 26.26123 50.63435 27253 ft 426 kts 275°
2026-05-09 10:14 26.26579 50.60177 27579 ft 426 kts 272°
2026-05-09 10:15 26.26984 50.56906 27911 ft 427 kts 272°
2026-05-09 10:15 26.27390 50.53634 28306 ft 426 kts 272°
2026-05-09 10:15 26.27805 50.50374 28741 ft 424 kts 272°
2026-05-09 10:15 26.28221 50.47129 29180 ft 422 kts 272°
2026-05-09 10:16 26.28635 50.43904 29627 ft 420 kts 272°
2026-05-09 10:16 26.29045 50.40702 30054 ft 418 kts 272°
2026-05-09 10:16 26.29454 50.37503 30382 ft 416 kts 272°
2026-05-09 10:16 26.29880 50.34327 30718 ft 416 kts 274°
2026-05-09 10:17 26.30623 50.31177 31068 ft 422 kts 282°
2026-05-09 10:17 26.31678 50.28122 31426 ft 423 kts 284°
2026-05-09 10:17 26.32790 50.25093 31750 ft 422 kts 285°
2026-05-09 10:17 26.33904 50.22059 31923 ft 423 kts 284°
2026-05-09 10:18 26.35010 50.19021 31936 ft 422 kts 284°
2026-05-09 10:18 26.37199 50.12955 31914 ft 422 kts 284°
2026-05-09 10:19 26.39376 50.06890 31913 ft 421 kts 284°
2026-05-09 10:19 26.41550 50.00825 31917 ft 421 kts 284°
2026-05-09 10:20 26.43719 49.94771 31913 ft 421 kts 284°
2026-05-09 10:20 26.45894 49.88694 31911 ft 421 kts 284°
2026-05-09 10:21 26.48057 49.82632 31908 ft 420 kts 284°
2026-05-09 10:21 26.50081 49.76590 31909 ft 415 kts 279°
2026-05-09 10:22 26.51655 49.70402 31910 ft 414 kts 278°
2026-05-09 10:22 26.53210 49.64213 31912 ft 415 kts 278°
2026-05-09 10:23 26.54771 49.58016 31919 ft 414 kts 278°
2026-05-09 10:23 26.56330 49.51815 31923 ft 415 kts 278°
2026-05-09 10:24 26.57892 49.45616 31929 ft 414 kts 278°
2026-05-09 10:24 26.59449 49.39409 31933 ft 415 kts 278°
2026-05-09 10:25 26.61001 49.33209 31941 ft 414 kts 278°
2026-05-09 10:25 26.62298 49.28013 31937 ft 415 kts 278°
2026-05-09 10:26 26.63845 49.21803 31943 ft 415 kts 278°
2026-05-09 10:26 26.65391 49.15592 31942 ft 415 kts 278°
2026-05-09 10:27 26.66932 49.09384 31947 ft 415 kts 278°
2026-05-09 10:27 26.68442 49.03304 31958 ft 403 kts 278°
2026-05-09 10:28 26.69930 48.97276 31957 ft 402 kts 278°
2026-05-09 10:28 26.71413 48.91261 31953 ft 401 kts 278°
2026-05-09 10:29 26.72889 48.85249 31957 ft 401 kts 278°
2026-05-09 10:29 26.74365 48.79240 31956 ft 400 kts 278°
2026-05-09 10:30 26.75842 48.73231 31964 ft 400 kts 278°
2026-05-09 10:30 26.76513 48.67178 31960 ft 389 kts 264°
2026-05-09 10:31 26.76343 48.61141 31968 ft 388 kts 263°
2026-05-09 10:31 26.76168 48.55105 31968 ft 388 kts 264°
2026-05-09 10:32 26.76002 48.49066 31970 ft 389 kts 264°
2026-05-09 10:32 26.75836 48.43024 31977 ft 388 kts 264°
2026-05-09 10:33 26.75669 48.36983 31976 ft 389 kts 264°
2026-05-09 10:33 26.75502 48.30931 31976 ft 389 kts 264°
2026-05-09 10:34 26.75333 48.24879 31979 ft 389 kts 264°
2026-05-09 10:34 26.75073 48.15784 31987 ft 391 kts 264°
2026-05-09 10:35 26.74897 48.09716 31990 ft 391 kts 264°
2026-05-09 10:35 26.74719 48.03620 31993 ft 392 kts 264°
2026-05-09 10:36 26.74537 47.97529 31994 ft 392 kts 264°
2026-05-09 10:36 26.74354 47.91421 32092 ft 394 kts 264°
2026-05-09 10:37 26.74284 47.88357 32406 ft 395 kts 266°
2026-05-09 10:37 26.74392 47.85292 32799 ft 393 kts 268°
2026-05-09 10:37 26.74544 47.82284 33177 ft 391 kts 268°
2026-05-09 10:37 26.74705 47.79214 33529 ft 389 kts 268°
2026-05-09 10:38 26.74858 47.76249 33836 ft 387 kts 268°
2026-05-09 10:38 26.75011 47.73237 34019 ft 387 kts 268°
2026-05-09 10:38 26.75311 47.67238 33915 ft 386 kts 268°
2026-05-09 10:39 26.75459 47.64241 33694 ft 387 kts 268°
2026-05-09 10:39 26.75608 47.61226 33447 ft 389 kts 268°
2026-05-09 10:39 26.75756 47.58197 33202 ft 391 kts 269°
2026-05-09 10:39 26.75905 47.55155 32952 ft 393 kts 269°
2026-05-09 10:40 26.76053 47.52098 32699 ft 395 kts 269°
2026-05-09 10:40 26.76202 47.49023 32445 ft 396 kts 269°
2026-05-09 10:40 26.76350 47.45937 32197 ft 398 kts 269°
2026-05-09 10:40 26.76500 47.42841 32011 ft 400 kts 270°
2026-05-09 10:41 26.76910 47.36616 31990 ft 405 kts 275°
2026-05-09 10:41 26.77857 47.30396 32014 ft 406 kts 276°
2026-05-09 10:42 26.78832 47.24159 32020 ft 407 kts 276°
2026-05-09 10:42 26.79796 47.17910 32014 ft 408 kts 276°
2026-05-09 10:43 26.80757 47.11637 32018 ft 408 kts 276°
2026-05-09 10:43 26.81708 47.05411 32027 ft 409 kts 276°
2026-05-09 10:44 26.82672 46.99087 32026 ft 410 kts 276°
2026-05-09 10:44 26.83629 46.92793 32029 ft 410 kts 276°
2026-05-09 10:46 26.86006 46.77053 32031 ft 412 kts 277°
2026-05-09 10:46 26.86957 46.70714 32027 ft 413 kts 277°
2026-05-09 10:47 26.87910 46.64361 32030 ft 414 kts 277°
2026-05-09 10:47 26.88863 46.57991 32032 ft 415 kts 277°
2026-05-09 10:48 26.89810 46.51605 32038 ft 416 kts 277°
2026-05-09 10:48 26.90754 46.45215 32028 ft 417 kts 277°
2026-05-09 10:49 26.91708 46.38801 32029 ft 417 kts 277°
2026-05-09 10:49 26.92663 46.32380 32036 ft 418 kts 277°
2026-05-09 10:50 26.93614 46.25945 32039 ft 419 kts 278°
2026-05-09 10:50 26.94565 46.19500 32037 ft 419 kts 278°
2026-05-09 10:51 26.95512 46.13051 32036 ft 420 kts 278°
2026-05-09 10:51 26.96458 46.06589 32041 ft 420 kts 278°
2026-05-09 10:52 26.97401 46.00122 32039 ft 421 kts 278°
2026-05-09 10:52 26.98341 45.93650 32038 ft 421 kts 278°
2026-05-09 10:53 26.99284 45.87168 32042 ft 421 kts 278°
2026-05-09 10:53 27.00223 45.80681 32043 ft 422 kts 278°
2026-05-09 10:54 27.01157 45.74182 32047 ft 423 kts 278°
2026-05-09 10:54 27.02093 45.67672 32042 ft 423 kts 278°
2026-05-09 10:55 27.03022 45.61169 32044 ft 422 kts 278°
2026-05-09 10:55 27.03943 45.54662 32038 ft 422 kts 278°
2026-05-09 10:56 27.04792 45.48144 32040 ft 422 kts 274°
2026-05-09 10:56 27.04726 45.44856 32045 ft 422 kts 263°
2026-05-09 10:56 27.04069 45.41656 32045 ft 423 kts 252°
2026-05-09 10:57 27.01534 45.35681 32052 ft 425 kts 244°
2026-05-09 10:57 26.98852 45.29816 32047 ft 425 kts 245°
2026-05-09 10:58 26.96191 45.23899 32051 ft 425 kts 245°
2026-05-09 10:58 26.93533 45.17976 32045 ft 425 kts 245°
2026-05-09 10:59 26.90883 45.12058 32053 ft 425 kts 245°
2026-05-09 10:59 26.88230 45.06143 32050 ft 425 kts 245°
2026-05-09 11:00 26.85577 45.00235 32046 ft 425 kts 245°
2026-05-09 11:00 26.82928 44.94326 32051 ft 424 kts 245°
2026-05-09 11:01 26.80274 44.88422 32051 ft 424 kts 245°
2026-05-09 11:01 26.77620 44.82522 32053 ft 425 kts 245°
2026-05-09 11:02 26.74950 44.76628 32055 ft 425 kts 245°
2026-05-09 11:02 26.72278 44.70734 32047 ft 425 kts 245°
2026-05-09 11:03 26.69607 44.64841 32052 ft 425 kts 245°
2026-05-09 11:03 26.66932 44.58950 32049 ft 425 kts 245°
2026-05-09 11:04 26.64280 44.53111 32048 ft 424 kts 245°
2026-05-09 11:04 26.61600 44.47230 32047 ft 424 kts 245°
2026-05-09 11:05 26.58923 44.41363 32044 ft 425 kts 245°
2026-05-09 11:05 26.56241 44.35481 32045 ft 424 kts 245°
2026-05-09 11:06 26.53559 44.29605 32047 ft 424 kts 245°
2026-05-09 11:06 26.50875 44.23740 32046 ft 424 kts 244°
2026-05-09 11:07 26.48186 44.17869 32048 ft 425 kts 244°
2026-05-09 11:07 26.45495 44.12005 32046 ft 424 kts 244°
2026-05-09 11:08 26.42803 44.06141 32037 ft 425 kts 244°
2026-05-09 11:08 26.40106 44.00281 32036 ft 425 kts 244°
2026-05-09 11:09 26.37404 43.94416 32029 ft 425 kts 244°
2026-05-09 11:09 26.34708 43.88562 32020 ft 425 kts 244°
2026-05-09 11:10 26.32006 43.82704 32022 ft 425 kts 244°
2026-05-09 11:10 26.29341 43.76822 32022 ft 425 kts 246°
2026-05-09 11:11 26.26885 43.70843 32024 ft 425 kts 246°
2026-05-09 11:11 26.24433 43.64856 32027 ft 425 kts 246°
2026-05-09 11:12 26.21975 43.58876 32032 ft 425 kts 246°
2026-05-09 11:12 26.19927 43.53900 32032 ft 425 kts 246°
2026-05-09 11:13 26.17463 43.47918 32040 ft 425 kts 246°
2026-05-09 11:13 26.14993 43.41937 32043 ft 425 kts 246°
2026-05-09 11:14 26.12521 43.35956 32038 ft 425 kts 246°
2026-05-09 11:14 26.09645 43.29004 32040 ft 426 kts 246°
2026-05-09 11:15 26.07564 43.23990 32042 ft 426 kts 246°
2026-05-09 11:15 26.05085 43.18015 32043 ft 426 kts 246°
2026-05-09 11:16 26.02601 43.12030 32041 ft 426 kts 246°
2026-05-09 11:16 26.00108 43.06052 32038 ft 426 kts 246°
2026-05-09 11:17 25.97618 43.00076 32016 ft 426 kts 246°
2026-05-09 11:17 25.95123 42.94094 32011 ft 426 kts 246°
2026-05-09 11:18 25.92627 42.88123 32007 ft 426 kts 246°
2026-05-09 11:18 25.90127 42.82152 32003 ft 425 kts 246°
2026-05-09 11:19 25.87647 42.76238 32004 ft 425 kts 246°
2026-05-09 11:19 25.85144 42.70280 32004 ft 425 kts 246°
2026-05-09 11:20 25.82642 42.64326 32008 ft 426 kts 246°
2026-05-09 11:20 25.80141 42.58383 31997 ft 426 kts 245°
2026-05-09 11:21 25.77628 42.52425 31995 ft 426 kts 245°
2026-05-09 11:21 25.75116 42.46473 31995 ft 426 kts 245°
2026-05-09 11:22 25.72598 42.40519 31987 ft 426 kts 245°
2026-05-09 11:22 25.70078 42.34571 31988 ft 427 kts 245°
2026-05-09 11:23 25.67551 42.28617 31985 ft 427 kts 245°
2026-05-09 11:23 25.65022 42.22672 31977 ft 426 kts 245°
2026-05-09 11:24 25.62498 42.16736 31984 ft 426 kts 245°
2026-05-09 11:24 25.59970 42.10788 31974 ft 426 kts 245°
2026-05-09 11:25 25.57437 42.04850 31973 ft 427 kts 245°
2026-05-09 11:25 25.54901 41.98905 31974 ft 427 kts 245°
2026-05-09 11:26 25.52382 41.93009 31977 ft 427 kts 245°
2026-05-09 11:26 25.49841 41.87072 31969 ft 427 kts 245°
2026-05-09 11:27 25.47297 41.81142 31977 ft 426 kts 245°
2026-05-09 11:27 25.44752 41.75214 31969 ft 427 kts 245°
2026-05-09 11:28 25.42201 41.69285 31972 ft 427 kts 245°
2026-05-09 11:28 25.39648 41.63352 31975 ft 427 kts 245°
2026-05-09 11:29 25.37091 41.57426 31974 ft 427 kts 245°
2026-05-09 11:29 25.34535 41.51500 31971 ft 427 kts 245°
2026-05-09 11:29 25.33267 41.48565 31760 ft 422 kts 245°
2026-05-09 11:30 25.31993 41.45621 31455 ft 426 kts 245°
2026-05-09 11:30 25.30712 41.42663 31200 ft 428 kts 245°
2026-05-09 11:30 25.29422 41.39696 30960 ft 429 kts 245°
2026-05-09 11:30 25.28128 41.36723 30724 ft 431 kts 245°
2026-05-09 11:31 25.26830 41.33734 30489 ft 431 kts 245°
2026-05-09 11:31 25.25535 41.30752 30252 ft 431 kts 245°
2026-05-09 11:31 25.24246 41.27771 30012 ft 430 kts 245°
2026-05-09 11:31 25.22958 41.24798 29740 ft 428 kts 245°
2026-05-09 11:32 25.21676 41.21837 29463 ft 426 kts 245°
2026-05-09 11:32 25.20396 41.18890 29192 ft 425 kts 245°
2026-05-09 11:32 25.19121 41.15956 28927 ft 423 kts 245°
2026-05-09 11:32 25.17851 41.13040 28674 ft 421 kts 245°
2026-05-09 11:33 25.16580 41.10130 28403 ft 419 kts 245°
2026-05-09 11:33 25.15316 41.07236 28141 ft 418 kts 245°
2026-05-09 11:33 25.12807 41.01487 27607 ft 414 kts 245°
2026-05-09 11:34 25.11561 40.98638 27136 ft 410 kts 245°
2026-05-09 11:34 25.10204 40.95881 26575 ft 409 kts 238°
2026-05-09 11:34 25.08436 40.93435 26018 ft 409 kts 227°
2026-05-09 11:34 25.06255 40.91415 25476 ft 410 kts 218°
2026-05-09 11:35 25.03925 40.89620 24933 ft 409 kts 217°
2026-05-09 11:35 25.01581 40.87847 24368 ft 408 kts 217°
2026-05-09 11:35 24.99253 40.86072 23792 ft 405 kts 217°
2026-05-09 11:35 24.96974 40.84323 23179 ft 402 kts 217°
2026-05-09 11:36 24.94692 40.82563 22575 ft 398 kts 217°
2026-05-09 11:36 24.92433 40.80816 21973 ft 395 kts 217°
2026-05-09 11:36 24.90197 40.79087 21400 ft 391 kts 217°
2026-05-09 11:36 24.87982 40.77374 20848 ft 387 kts 217°
2026-05-09 11:37 24.85787 40.75680 20304 ft 383 kts 217°
2026-05-09 11:37 24.83620 40.74006 19806 ft 379 kts 217°
2026-05-09 11:37 24.81469 40.72352 19311 ft 375 kts 217°
2026-05-09 11:37 24.79345 40.70718 18845 ft 372 kts 217°
2026-05-09 11:38 24.77221 40.69081 18378 ft 372 kts 217°
2026-05-09 11:38 24.75102 40.67446 17891 ft 372 kts 216°
2026-05-09 11:38 24.72982 40.65814 17391 ft 372 kts 216°
2026-05-09 11:38 24.70883 40.64201 17039 ft 364 kts 216°
2026-05-09 11:39 24.68851 40.62587 16941 ft 358 kts 220°
2026-05-09 11:39 24.67226 40.60580 16932 ft 355 kts 238°
2026-05-09 11:39 24.66299 40.58022 16943 ft 360 kts 257°
2026-05-09 11:40 24.65612 40.52715 15908 ft 353 kts 261°
2026-05-09 11:40 24.65298 40.50026 15045 ft 356 kts 261°
2026-05-09 11:40 24.64968 40.47351 14259 ft 358 kts 260°
2026-05-09 11:40 24.64622 40.44642 13476 ft 358 kts 259°
2026-05-09 11:41 24.64274 40.41954 12885 ft 351 kts 259°
2026-05-09 11:41 24.63936 40.39354 12418 ft 342 kts 259°
2026-05-09 11:41 24.63599 40.36781 11930 ft 335 kts 259°
2026-05-09 11:41 24.63274 40.34296 11621 ft 323 kts 259°
2026-05-09 11:42 24.62958 40.31895 11438 ft 311 kts 259°
2026-05-09 11:42 24.62654 40.29586 11287 ft 300 kts 259°
2026-05-09 11:42 24.62362 40.27367 11147 ft 288 kts 259°
2026-05-09 11:42 24.62079 40.25224 11015 ft 277 kts 258°
2026-05-09 11:43 24.61808 40.23164 10879 ft 271 kts 258°
2026-05-09 11:43 24.61536 40.21117 10773 ft 271 kts 258°
2026-05-09 11:43 24.61265 40.19065 10662 ft 271 kts 258°
2026-05-09 11:43 24.60993 40.17015 10546 ft 271 kts 258°
2026-05-09 11:44 24.60723 40.14964 10437 ft 271 kts 258°
2026-05-09 11:44 24.60450 40.12917 10331 ft 271 kts 258°
2026-05-09 11:44 24.60179 40.10877 10222 ft 270 kts 258°
2026-05-09 11:44 24.59914 40.08814 10118 ft 283 kts 262°
2026-05-09 11:45 24.60159 40.06604 10007 ft 301 kts 288°
2026-05-09 11:45 24.61280 40.04662 9899 ft 306 kts 311°
2026-05-09 11:45 24.62866 40.03087 9795 ft 307 kts 318°
2026-05-09 11:45 24.64508 40.01596 9681 ft 306 kts 318°
2026-05-09 11:46 24.66134 40.00090 9546 ft 306 kts 317°
2026-05-09 11:46 24.67736 39.98571 9423 ft 305 kts 317°
2026-05-09 11:46 24.69328 39.97043 9293 ft 305 kts 317°
2026-05-09 11:46 24.70929 39.95506 9158 ft 305 kts 317°
2026-05-09 11:47 24.72520 39.93970 9030 ft 304 kts 317°
2026-05-09 11:47 24.74104 39.92438 8905 ft 303 kts 316°
2026-05-09 11:47 24.75685 39.90904 8780 ft 303 kts 316°
2026-05-09 11:47 24.77243 39.89388 8659 ft 303 kts 316°
2026-05-09 11:48 24.78839 39.87838 8528 ft 302 kts 316°
2026-05-09 11:48 24.80386 39.86332 8416 ft 301 kts 316°
2026-05-09 11:48 24.81951 39.84800 8285 ft 301 kts 316°
2026-05-09 11:48 24.83511 39.83279 8161 ft 300 kts 316°
2026-05-09 11:49 24.85077 39.81754 8057 ft 299 kts 316°
2026-05-09 11:49 24.86596 39.80281 8128 ft 282 kts 317°
2026-05-09 11:49 24.88018 39.78916 8297 ft 265 kts 316°
2026-05-09 11:49 24.89362 39.77618 8485 ft 253 kts 316°
2026-05-09 11:50 24.90689 39.76330 8671 ft 255 kts 315°
2026-05-09 11:50 24.91989 39.75006 8849 ft 254 kts 308°
2026-05-09 11:50 24.92800 39.73330 8996 ft 247 kts 276°
2026-05-09 11:50 24.92736 39.71474 9139 ft 242 kts 255°
2026-05-09 11:51 24.92334 39.69672 9164 ft 242 kts 252°
2026-05-09 11:51 24.91924 39.67880 8941 ft 241 kts 253°
2026-05-09 11:51 24.91516 39.66094 8634 ft 239 kts 250°
2026-05-09 11:51 24.90720 39.64544 8296 ft 233 kts 221°
2026-05-09 11:52 24.89319 39.63705 7970 ft 231 kts 191°
2026-05-09 11:52 24.87722 39.63745 7639 ft 231 kts 171°
2026-05-09 11:52 24.86153 39.64119 7315 ft 231 kts 169°
2026-05-09 11:52 24.84586 39.64501 6910 ft 230 kts 168°
2026-05-09 11:53 24.83027 39.64879 6575 ft 229 kts 169°
2026-05-09 11:53 24.81464 39.65256 6259 ft 230 kts 168°
2026-05-09 11:53 24.79895 39.65611 6058 ft 231 kts 168°
2026-05-09 11:53 24.78303 39.65954 5977 ft 233 kts 170°
2026-05-09 11:54 24.76729 39.66295 5929 ft 229 kts 170°
2026-05-09 11:54 24.75171 39.66634 5776 ft 226 kts 169°
2026-05-09 11:54 24.73661 39.66960 5597 ft 215 kts 171°
2026-05-09 11:54 24.72228 39.67228 5397 ft 206 kts 171°
2026-05-09 11:55 24.70825 39.67519 5078 ft 203 kts 170°
2026-05-09 11:56 24.64113 39.68953 3432 ft 183 kts 171°
2026-05-09 11:56 24.62896 39.69237 3256 ft 174 kts 171°
2026-05-09 11:56 24.61734 39.69445 2988 ft 165 kts 168°
2026-05-09 11:57 24.60626 39.69692 2785 ft 159 kts 164°
2026-05-09 11:57 24.59622 39.69908 2583 ft 142 kts 165°
2026-05-09 11:57 24.58650 39.70122 2392 ft 141 kts 165°
2026-05-09 11:57 24.57691 39.70315 2162 ft 138 kts 165°
2026-05-09 11:58 24.56809 39.70512 2116 ft 112 kts 169°
2026-05-09 11:58 24.56221 39.70634 2119 ft 61 kts 169°
2026-05-09 11:58 24.55920 39.70701 2117 ft 43 kts 168°
2026-05-09 11:58 24.55620 39.70764 2114 ft 45 kts 168°
2026-05-09 11:59 24.55324 39.70869 2115 ft 31 kts 147°
2026-05-09 11:59 24.55225 39.70955 2114 ft 7 kts 135°
2026-05-09 11:59 24.55213 39.71008 2113 ft 8 kts 77°
2026-05-09 11:59 24.55268 39.71027 2112 ft 10 kts 354°
2026-05-09 12:00 24.55342 39.71009 2112 ft 12 kts 347°
2026-05-09 12:00 24.55432 39.70991 2112 ft 14 kts 351°
2026-05-09 12:00 24.55503 39.70977 2111 ft 16 kts 349°
2026-05-09 12:00 24.55656 39.70944 2112 ft 18 kts 349°
2026-05-09 12:01 24.55785 39.70918 2112 ft 20 kts 349°
2026-05-09 12:01 24.55876 39.70899 2112 ft 21 kts 349°
2026-05-09 12:01 24.55979 39.70884 2112 ft 14 kts 35°
2026-05-09 12:01 24.56010 39.70985 2111 ft 15 kts 78°
2026-05-09 12:02 24.56030 39.71103 2110 ft 16 kts 78°
2026-05-09 12:02 24.56053 39.71233 2110 ft 18 kts 79°
2026-05-09 12:02 24.56076 39.71363 2110 ft 8 kts 84°
2026-05-09 12:02 24.56033 39.71409 2110 ft 11 kts 167°
2026-05-09 12:03 24.55982 39.71384 2110 ft 10 kts 260°
2026-05-09 12:03 24.55976 39.71347 2110 ft 0 kts 258°
2026-05-09 12:03 24.55974 39.71339 2110 ft 2 kts 258°
2026-05-09 12:03 24.55973 39.71332 2110 ft 0 kts 258°
2026-05-09 12:04 24.55973 39.71333 2110 ft 0 kts 258°
2026-05-09 12:04 24.55972 39.71329 2112 ft 0 kts 259°